Location: Gollag?dem
(17.0207°N, 80.7261°E)
Time: 12:26:12
(UTC+00:00)

IRIDIUM 103 - Pass Details

Date: 03 August 2024
Orbit: 776 x 779 km, 86.4° (Epoch: 11 September)

Event Time Altitude Azimuth Distance (km) Brightness Sun altitude
Exits shadow 22:57:39 23° 201° (SSW) 1,588 5.5 -18.6°
Maximum altitude 23:00:44 56° 271° (W) 921 4.4 -18.0°
Drops below altitude 10° 23:05:50 10° 349° (N) 2,326 7.0 -16.9°
Sets 23:08:14 0° 354° (N) 3,255 7.8 -16.4°
